Regional Weather Roundup
Issued by NWS

Home | Current Version | Previous Version | Text Only | Print | Product List | Glossary On
Versions: 1 2 3 4 5 6 7 8 9 10 11 12 13 14 15 16 17 18 19 20 21 22 23 24 25 26 27 28 29 30 31 32 33 34 35 36 37 38 39 40 41 42 43 44 45 46 47 48 49 50
000
ASUS43 KTOP 262359
RWRKS

WEATHER ROUNDUP FOR KANSAS
NATIONAL WEATHER SERVICE GOODLAND KS
700 PM CDT THU APR 26 2018

NOTE:  "FAIR" INDICATES FEW OR NO CLOUDS BELOW 12,000 FEET WITH NO
SIGNIFICANT WEATHER AND/OR OBSTRUCTIONS TO VISIBILITY.

KSZ001>006-013>018-027>032-041>047-270100-
NORTHWEST KANSAS

CITY           SKY/WX    TMP DP  RH WIND       PRES   REMARKS
GOODLAND       MOSUNNY   60  27  28 N17G29    30.17S
6HR MIN TEMP:  59; 6HR MAX TEMP:  64; 6HR PCP: TRACE;

HAYS           SUNNY     66  33  29 N24       30.07R
HILL CITY        N/A    N/A N/A N/A MISG      30.12R
RUSSELL        SUNNY     67  35  30 N20G28    30.04R
6HR MIN TEMP:  66; 6HR MAX TEMP:  73; 6HR PCP: TRACE;

$$

KSZ061>065-074>080-084>089-270100-
SOUTHWEST KANSAS

CITY           SKY/WX    TMP DP  RH WIND       PRES   REMARKS
DODGE CITY     PTSUNNY   62  37  39 N20G32    30.08R
6HR MIN TEMP:  62; 6HR MAX TEMP:  68;

GARDEN CITY    PTSUNNY   61  35  37 NE20      30.11R
6HR MIN TEMP:  59; 6HR MAX TEMP:  65;

GREAT BEND     SUNNY     64  41  42 N17       30.05R
LIBERAL        SUNNY     63  37  38 N23G29    30.10R
$$

KSZ066>073-081>083-090>101-270100-
SOUTHEAST KANSAS

CITY           SKY/WX    TMP DP  RH WIND       PRES   REMARKS
CHANUTE        MOSUNNY   66  46  48 NW5       29.98S
6HR MIN TEMP:  60; 6HR MAX TEMP:  68;

COFFEYVILLE    MOSUNNY   64  50  60 S3        29.99R
6HR MIN TEMP:  59; 6HR MAX TEMP:  67;

HUTCHINSON     SUNNY     70  40  33 N6        29.99S
6HR MIN TEMP:  61; 6HR MAX TEMP:  72;

MEDICINE LODGE   N/A     66  44  45 CALM      30.01S
NEWTON         MOSUNNY   66  42  41 N7        30.00S
PARSONS        MOSUNNY   65  49  56 CALM      29.99S
6HR MIN TEMP:  59; 6HR MAX TEMP:  68;

WICHITA INTL   CLOUDY    68  41  37 NW6       29.99F
6HR MIN TEMP:  62; 6HR MAX TEMP:  69;

WICHITA JABRA  MOSUNNY   67  44  43 NW7       29.99F
6HR MIN TEMP:  61; 6HR MAX TEMP:  70;

WICHITA MCCONL CLOUDY    66  41  39 N8        29.99F
WINFIELD       MOSUNNY   65  48  54 NW5       30.00S
6HR MIN TEMP:  60; 6HR MAX TEMP:  68;

$$

KSZ007>012-019>026-033>040-048>060-102>105-270100-
NORTHEAST KANSAS

CITY           SKY/WX    TMP DP  RH WIND       PRES   REMARKS
CONCORDIA      SUNNY     66  34  30 N20G26    30.02R
6HR MIN TEMP:  62; 6HR MAX TEMP:  70;

EMPORIA        PTSUNNY   66  39  37 NW8       29.97S
6HR MIN TEMP:  60; 6HR MAX TEMP:  69;

LAWRENCE       SUNNY     68  41  37 N13       29.95S
6HR MIN TEMP:  62; 6HR MAX TEMP:  70;

MANHATTAN      SUNNY     70  44  39 N13G26    29.97R
6HR MIN TEMP:  62; 6HR MAX TEMP:  72;

OLATHE IND     SUNNY     66  43  43 NW8       29.96S
6HR MIN TEMP:  60; 6HR MAX TEMP:  68;

OLATHE EXE     SUNNY     65  44  46 NW13G18   29.95S
6HR MIN TEMP:  59; 6HR MAX TEMP:  66;

SALINA         SUNNY     69  44  40 N17       30.00R
6HR MIN TEMP:  63; 6HR MAX TEMP:  74;

TOPEKA BILLARD SUNNY     68  44  42 N10       29.95S
6HR MIN TEMP:  62; 6HR MAX TEMP:  71;

TOPEKA FORBES  MOSUNNY   69  43  38 W5        29.95S
6HR MIN TEMP:  62; 6HR MAX TEMP:  70;

$$



USA.gov is the U.S. government's official web portal to all federal, state and local government web resources and services.